Location: ???????
(55.4362°N, 38.1183°E)
Time: 18:38:51
(UTC+00:00)

Cosmos 2278 Rocket - Pass Details

Date: 31 October 2021
Orbit: 841 x 845 km, 71.0° (Epoch: 28 November)

Event Time Altitude Azimuth Distance (km) Brightness Sun altitude
Rises 16:03:10 0° 325° (NW) 3,418 5.9 -19.1°
Reaches altitude 10° 16:05:38 10° 325° (NW) 2,479 5.1 -19.5°
Maximum altitude 16:11:20 82° 240° (WSW) 859 2.2 -20.3°
Enters shadow 16:15:29 19° 153° (SSE) 1,900 3.7 -20.9°
